User: anonymous   Login
Location: Unspecified
(0.0000°N, 0.0000°E)
Time: 06:58:05
(UTC+00:00)
Language:

COSMOS 2468 - Orbit

View from above orbital plane
View from above orbital plane
View from above satellite
View from above satellite

Ground track
Ground track

The orbit data is extracted from the following two-line orbital elements,

1 37154U 10043C   18169.73453917 +.00000007 +00000-0 -23630-4 0  9998
2 37154 082.4606 090.6267 0013379 194.4241 165.6455 12.43640594352916
Epoch (UTC): 18 June 2018 17:37:44
Eccentricity: 0.0013379
inclination: 82.4606°
perigee height: 1480 km
apogee height: 1502 km
right ascension of ascending node: 90.6267°
argument of perigee: 194.4241°
revolutions per day: 12.43640594
mean anomaly at epoch: 165.6455°
orbit number at epoch: 35291

The dashed part of the orbit path shows where the satellite is in the earth's shadow,  

DLR